Regional Weather Roundup
Issued by NWS

Home | Current Version | Previous Version | Graphics & Text | Print | Product List | Glossary On
Versions: 1 2 3 4 5 6 7 8 9 10 11 12 13 14 15 16 17 18 19 20 21 22 23 24 25 26 27 28 29 30 31 32 33 34 35 36 37 38 39 40 41 42 43 44 45 46 47 48 49 50
786
ASUS43 KBIS 130710
RWRND

NORTH DAKOTA REGIONAL WEATHER ROUNDUP
NATIONAL WEATHER SERVICE BISMARCK ND
100 AM CST SAT FEB 13 2016

NOTE: "FAIR" INDICATES FEW OR NO CLOUDS BELOW 12,000 FEET WITH NO
SIGNIFICANT WEATHER AND/OR OBSTRUCTIONS TO VISIBILITY.


NDZ001>003-009>011-017-130800-
NORTHWEST NORTH DAKOTA

CITY           SKY/WX    TMP DP  RH WIND       PRES   REMARKS
WILLISTON      LGT SNOW  12   7  80 SE10      30.29F WCI  -1
MINOT          CLOUDY     6  -3  66 SE10      30.44F WCI  -9
MINOT AFB      CLOUDY     5  -1  74 SE13      30.43F WCI -11
$$

NDZ018>021-031>035-040>046-130800-
SOUTHWEST NORTH DAKOTA

CITY           SKY/WX    TMP DP  RH WIND       PRES   REMARKS
BISMARCK       CLOUDY     6  -4  63 SE13      30.49F WCI -10
DICKINSON      LGT SNOW  10   6  84 SE21      30.25F FOG     WCI  -9
GARRISON         N/A      5  -2  72 SE13      30.41F WCI -12
HETTINGER ARPT LGT SNOW  13   9  84 SE17      30.28F FOG     WCI  -4
$$

NDZ004>008-012>016-024-026-027-054-130800-
NORTHEAST NORTH DAKOTA

CITY           SKY/WX    TMP DP  RH WIND       PRES   REMARKS
GRAND FORKS    CLOUDY    -8 -14  74 CALM      30.66F
GRND FRKS AFB  CLOUDY   -10 -17  73 SW3       30.65F
DEVILS LAKE    CLOUDY   -14 -19  79 SE3       30.56F
$$

NDZ022-023-025-028>030-036>039-047>053-130800-
SOUTHEAST NORTH DAKOTA

CITY           SKY/WX    TMP DP  RH WIND       PRES   REMARKS
FARGO          CLOUDY    -7 -15  68 CALM      30.66F
JAMESTOWN      CLOUDY    -5 -12  72 SE3       30.56F
$$





USA.gov is the U.S. government's official web portal to all federal, state and local government web resources and services.